Погода в Рыбнике

Польша     50°05′44″N   18°33′10″E
темп.,
°C
ветер,
м/с
пор.,
м/с
влажн.,
%
обл.,
%
осадки,
мм/ч
давл.,
гПа
погр.,
м
31 июля, сб
сб3123:00+21ююз12640 0.0 100918
02:00+19ю227798 0.6 100837
05:00+18ююз358591 0.6 100879
08:00+20ююз4681100 1.3 1009231
11:00+23юз4568100 0.1 1009662
14:00+25зюз5661100 2.4 10091363
17:00+26зсз35505 0.7 10091492
20:00+22з3755100 0.7 1009184
1 августа, вс
вс123:00+21з1156100 0.0 101017
02:00+19ссв1161100 0.0 101013
05:00+17в116687 0.0 100911
08:00+17в1387100 2.0 1008187
11:00+17ссз3490100 3.3 1009421
14:00+18ссз4590100 6.6 1007440
17:00+16ссз5997100 3.9 1008466
20:00+15ссз2594100 4.8 1009411
2 августа, пн
пн223:00+15сз3695100 0.3 1009360
02:00+14зсз2595100 0.3 1010237
05:00+14зюз2393100 0.0 1010129
08:00+15юз358899 0.2 1012293
11:00+16зюз348697 0.9 1013323
14:00+16зюз128242 1.1 1013266
17:00+21юз23568 0.0 10131241
20:00+17сз22765 1.1 101328
3 августа, вт
вт323:00+15юз22824 0.0 101413
02:00+14юз22884 0.1 101533
05:00+13юз22895 0.0 101632
08:00+16юз11760 0.0 1017256
11:00+21юз23563 0.0 10161066
14:00+25юз35408 0.0 10142049
17:00+25юз453853 0.0 10132241
20:00+21зюз1255100 0.0 101349
4 августа, ср
ср423:00+18ю226638 0.0 101341
02:00+16ю118448 2.2 101411
05:00+14ююз2290100 0.5 101449
08:00+18ююз2275100 0.5 1014186
11:00+22юз2357100 0.0 1013553
14:00+25ссв1144100 0.0 10121027
17:00+25ссв3446100 0.0 1011758
20:00+19ссв4972100 0.7 1010246